Home > Weather > Napa > Past weeks

Flag for USA Past Weather in Napa, California, USA — Yesterday and Last 2 Weeks

Now
62 °F

Clear.


Feels Like: 62 °F
Forecast: 56 / 95 °F
Wind: 6 mph from Southwest

Location: Napa County Airport

Current Time: Jul 27, 2016 at 12:59:52 AM

Latest Report: Jul 26, 2016 at 11:54 PM


Visibility: 10 mi

Pressure: 29.82 "Hg

Humidity: 80%

Dew Point: 56 °F

Location of NapaLocation

Past Weather in Napa — Graph

°F

Napa Temperature Yesterday

Maximum temperature yesterday: 91 °F (at 2:54 PM)
Minimum temperature yesterday: 50 °F (at 4:02 AM)
Average temperature yesterday: 70 °F

High & Low Weather Summary for the Past Weeks

 TemperatureHumidityPressure
High91 °F (Jul 26, 2:54 PM)100% (Jul 20, 5:54 AM)30.09 "Hg (Jul 20, 5:54 AM)
Low46 °F (Jul 22, 5:54 AM)30% (Jul 26, 1:54 PM)29.78 "Hg (Jul 26, 6:54 PM)
Average64 °F72%29.93 "Hg
* Reported Jul 11 10:54 PM — Jul 26 10:54 PM, Napa, Weather by CustomWeather, © 2016

Note: Actual official high and low records may vary slightly from our data, if they occured in-between our weather recording intervals... More about our weather records

Advertising

Napa Weather History for the Previous 24 Hours

Scroll right to see more
 ConditionsComfort  
Time TempWeatherWind HumidityBarometerVisibility
10:54 PM
Tue, Jul 26
65 °FClear.7 mph76%29.81 "Hg10 mi
9:54 PM68 °FClear.5 mph70%29.81 "Hg10 mi
8:54 PM70 °FSunny.No wind59%29.79 "Hg10 mi
7:54 PM77 °FSunny.9 mph50%29.78 "Hg10 mi
6:54 PM82 °FSunny.9 mph41%29.78 "Hg10 mi
5:54 PM85 °FSunny.7 mph37%29.78 "Hg10 mi
4:54 PM87 °FSunny.9 mph37%29.79 "Hg10 mi
3:54 PM91 °FSunny.10 mph33%29.80 "Hg10 mi
2:54 PM91 °FSunny.12 mph30%29.82 "Hg10 mi
1:54 PM89 °FSunny.8 mph30%29.84 "Hg10 mi
12:54 PM84 °FSunny.6 mph35%29.86 "Hg10 mi
11:54 AM79 °FSunny.7 mph42%29.88 "Hg10 mi
10:54 AM74 °FSunny.8 mph52%29.89 "Hg10 mi
9:54 AM71 °FSunny.5 mph61%29.89 "Hg10 mi
8:54 AM66 °FSunny.No wind75%29.90 "Hg10 mi
7:54 AM61 °FSunny.No wind87%29.90 "Hg10 mi
6:54 AM53 °FPassing clouds.No wind100%29.89 "Hg10 mi
6:01 AM51 °FFog.No wind96%29.90 "Hg0 mi
4:54 AM52 °FClear.3 mph93%29.86 "Hg10 mi
4:02 AM50 °FFog.No wind96%29.89 "Hg2 mi
2:54 AM53 °FClear.5 mph96%29.87 "Hg10 mi
1:54 AM51 °FClear.No wind96%29.86 "Hg9 mi
12:54 AM53 °FClear.No wind89%29.87 "Hg10 mi
Weather by CustomWeather, © 2016

See weather overviewHow to use our weather pages